This is the latest recevied weather packets stored in our database for station/object KJ4AJP. If no packets are shown the sender has not sent any weather packets the latest 10 day(s).
| Time | Temp. | Humidity | Pressure | Rain* | Wind** | Luminosity | Snow |
|---|---|---|---|---|---|---|---|
| 1777990011 | 15° C | 93% | 1009.9 hPa | 6.1 mm | - | 27 W/m² | - |
| 1777989708 | 15° C | 93% | 1010.2 hPa | 6.1 mm | - | 24 W/m² | - |
| 1777989403 | 15° C | 92% | 1010.3 hPa | 4.83 mm | - | 25 W/m² | - |
| 1777989101 | 15.56° C | 91% | 1010.3 hPa | 6.1 mm | - | 26 W/m² | - |
| 1777988796 | 15.56° C | 90% | 1010.5 hPa | 7.11 mm | - | 12 W/m² | - |
| 1777988494 | 15.56° C | 88% | 1010.6 hPa | 8.89 mm | - | 11 W/m² | - |
| 1777988191 | 16.11° C | 85% | 1010.5 hPa | 8.89 mm | - | 7 W/m² | - |
| 1777987887 | 16.67° C | 82% | 1010.6 hPa | 6.1 mm | - | 7 W/m² | - |
| 1777987583 | 16.67° C | 79% | 1010.1 hPa | 1.78 mm | - | 3 W/m² | - |
| 1777987281 | 17.22° C | 78% | 1010.1 hPa | 0 mm | - | 9 W/m² | - |
| 1777986977 | 17.78° C | 75% | 1009.9 hPa | 0 mm | - | 10 W/m² | - |
| 1777986675 | 17.78° C | 73% | 1009.8 hPa | 0 mm | - | 10 W/m² | - |
| 1777986373 | 17.78° C | 71% | 1009.5 hPa | 0 mm | - | 9 W/m² | - |
| 1777986071 | 17.78° C | 70% | 1009.4 hPa | 0 mm | - | 8 W/m² | - |
| 1777985767 | 17.78° C | 70% | 1009.5 hPa | 0 mm | - | 13 W/m² | - |
| 1777985465 | 17.78° C | 70% | 1009.3 hPa | 0 mm | - | 11 W/m² | - |
| 1777985161 | 17.78° C | 70% | 1009.4 hPa | 0 mm | - | 14 W/m² | - |
| 1777984857 | 17.78° C | 71% | 1009.6 hPa | 0 mm | - | 13 W/m² | - |
| 1777984554 | 17.78° C | 71% | 1009.5 hPa | 0 mm | - | 12 W/m² | - |
| 1777984250 | 17.22° C | 71% | 1009.2 hPa | 0 mm | - | 14 W/m² | - |
| 1777983947 | 17.22° C | 71% | 1009.3 hPa | 0 mm | - | 22 W/m² | - |
| 1777983644 | 17.22° C | 72% | 1009 hPa | 0 mm | - | 25 W/m² | - |
| 1777983340 | 17.22° C | 72% | 1009.2 hPa | 0 mm | - | 31 W/m² | - |
| 1777983038 | 17.22° C | 72% | 1009.1 hPa | 0 mm | - | 33 W/m² | - |
| 1777982734 | 17.22° C | 72% | 1009 hPa | 0 mm | - | 31 W/m² | - |
* Rain latest hour (hover to see other rain measurements)
** Current wind speed in m/s (hover to see current wind gust speed)